TimeMST,TemperatureF,Dew PointF,Humidity,Sea Level PressureIn,VisibilityMPH,Wind Direction,Wind SpeedMPH,Gust SpeedMPH,PrecipitationIn,Events,Conditions,WindDirDegrees,DateUTC
12:53 AM,21.9,1.9,42,29.95,10.0,South,8.1,-,N/A,,Overcast,170,2012-12-10 07:53:00
1:53 AM,21.9,-0.0,38,29.94,10.0,South,5.8,-,N/A,,Overcast,170,2012-12-10 08:53:00
2:53 AM,23.0,-0.0,37,29.91,10.0,South,8.1,-,N/A,,Overcast,180,2012-12-10 09:53:00
3:53 AM,25.0,-0.0,34,29.91,10.0,SSE,4.6,-,N/A,,Overcast,150,2012-12-10 10:53:00
4:53 AM,25.0,3.9,41,29.92,10.0,ESE,3.5,-,N/A,,Overcast,120,2012-12-10 11:53:00
5:41 AM,24.8,8.6,50,29.79,8.0,Calm,Calm,-,0.00,Snow,Light Snow,0,2012-12-10 12:41:00
5:53 AM,24.1,10.0,55,29.95,6.0,Calm,Calm,-,0.00,Snow,Light Snow,0,2012-12-10 12:53:00
6:06 AM,24.8,14.0,64,29.80,1.8,Calm,Calm,-,0.00,Snow,Light Snow,0,2012-12-10 13:06:00
6:26 AM,21.2,15.8,80,29.79,2.5,South,3.5,-,0.00,Snow,Light Snow,190,2012-12-10 13:26:00
6:35 AM,19.4,15.8,86,29.80,3.0,WSW,3.5,-,0.00,Snow,Light Snow,240,2012-12-10 13:35:00
6:53 AM,21.0,17.1,85,29.96,6.0,South,6.9,-,0.00,Snow,Light Snow,170,2012-12-10 13:53:00
7:53 AM,23.0,17.1,78,29.97,10.0,Calm,Calm,-,0.00,,Overcast,0,2012-12-10 14:53:00
8:53 AM,28.0,17.1,63,29.93,10.0,NNW,11.5,-,N/A,,Overcast,330,2012-12-10 15:53:00
9:23 AM,26.6,17.6,69,29.81,5.0,NW,20.7,25.3,0.00,Snow,Light Snow,320,2012-12-10 16:23:00
9:50 AM,28.4,17.6,64,29.82,10.0,NNW,26.5,35.7,0.00,,Overcast,330,2012-12-10 16:50:00
9:53 AM,28.0,18.0,66,29.94,10.0,NNW,26.5,38.0,0.00,,Overcast,330,2012-12-10 16:53:00
10:18 AM,28.4,21.2,74,29.83,1.8,NW,20.7,27.6,0.00,Snow,Light Snow,320,2012-12-10 17:18:00
10:32 AM,26.6,21.2,80,29.83,3.0,NNW,20.7,36.8,0.00,Snow,Light Snow,340,2012-12-10 17:32:00
10:53 AM,28.0,21.0,75,29.95,4.0,NNW,21.9,36.8,0.00,Snow,Light Snow,340,2012-12-10 17:53:00
11:18 AM,26.6,21.2,80,29.83,1.8,NNW,20.7,34.5,0.00,Snow,Light Snow,340,2012-12-10 18:18:00
11:28 AM,26.6,19.4,74,29.83,3.0,NNW,25.3,36.8,0.00,Snow,Light Snow,340,2012-12-10 18:28:00
11:53 AM,28.0,19.0,69,29.94,8.0,NNW,27.6,40.3,0.00,Snow,Light Snow,340,2012-12-10 18:53:00
12:53 PM,27.0,19.9,75,29.93,8.0,NNW,21.9,32.2,0.00,Snow,Light Snow,340,2012-12-10 19:53:00
1:09 PM,26.6,19.4,74,29.82,10.0,NNW,21.9,35.7,0.00,,Scattered Clouds,340,2012-12-10 20:09:00
1:53 PM,26.1,19.9,78,29.94,7.0,NNW,20.7,35.7,0.00,,Scattered Clouds,340,2012-12-10 20:53:00
2:00 PM,26.6,19.4,74,29.82,8.0,NNW,25.3,35.7,0.00,Snow,Light Snow,340,2012-12-10 21:00:00
2:10 PM,26.6,19.4,74,29.83,5.0,NNW,18.4,29.9,0.00,Snow,Light Snow,340,2012-12-10 21:10:00
2:20 PM,26.6,19.4,74,29.83,9.0,NNW,19.6,26.5,0.00,,Scattered Clouds,330,2012-12-10 21:20:00
2:53 PM,26.1,16.0,66,29.95,10.0,NNW,21.9,40.3,0.00,,Partly Cloudy,340,2012-12-10 21:53:00
3:53 PM,25.0,17.1,72,29.97,10.0,NNW,18.4,25.3,N/A,,Mostly Cloudy,340,2012-12-10 22:53:00
4:53 PM,24.1,12.9,62,29.97,10.0,NW,11.5,-,N/A,,Clear,320,2012-12-10 23:53:00
5:53 PM,21.9,9.0,58,29.99,10.0,NW,9.2,-,N/A,,Clear,310,2012-12-11 00:53:00
6:53 PM,23.0,7.0,50,30.00,10.0,NW,10.4,16.1,N/A,,Clear,310,2012-12-11 01:53:00
7:53 PM,23.0,8.1,53,29.99,10.0,Calm,Calm,-,N/A,,Partly Cloudy,0,2012-12-11 02:53:00
8:53 PM,19.0,6.1,57,29.98,10.0,WSW,3.5,-,N/A,,Partly Cloudy,240,2012-12-11 03:53:00
9:53 PM,23.0,7.0,50,29.98,10.0,NNW,13.8,23.0,N/A,,Mostly Cloudy,330,2012-12-11 04:53:00
10:53 PM,25.0,10.0,53,29.97,10.0,NW,13.8,-,N/A,,Mostly Cloudy,310,2012-12-11 05:53:00
11:53 PM,21.9,7.0,53,29.98,10.0,West,10.4,-,N/A,,Mostly Cloudy,280,2012-12-11 06:53:00